Weather History for Hillsdale, MI

Change the Weather History Date:

Friday, January 11, 2013

  Actual Average Record
Temperature  
Mean Temperature 46 °F -  
Max Temperature 57 °F 27 °F 57 °F (2013)
Min Temperature 35 °F 11 °F -18 °F (1984)
Degree Days  
Heating Degree Days 20    
Moisture  
Dew Point 44 °F    
Average Humidity 92    
Maximum Humidity 99    
Minimum Humidity 81    
Precipitation  
Precipitation 0.00 in - - ()
Sea Level Pressure  
Sea Level Pressure 29.87 in    
Wind  
Wind Speed 11 mph (South)    
Max Wind Speed 16 mph    
Max Gust Speed 23 mph    
Visibility 7 miles    
Events Fog , Rain , Snow    
Averages and records for this station are not official NWS values.
T = Trace of Precipitation, MM = Missing Value Source: NWS Daily Summary

Daily Weather History Graph

Daily Weather History Graph

Search for Another Location

Airport:

Trip Planner

Search our weather history database for the weather conditions in past years. The results will help you decide how hot, cold, wet, or windy it might be!

Date:

Astronomy

Jan. 11, 2013 Rise Set
Actual Time 8:05 AM EST 5:28 PM EST
Civil Twilight 7:34 AM EST 5:59 PM EST
Nautical Twilight 6:59 AM EST 6:33 PM EST
Astronomical Twilight 6:25 AM EST 7:07 PM EST
Moon 7:36 AM EST (1/11) 5:45 PM EST (1/11)
Length of Visible Light 10h 25m
Length of Day
9h 23m
Waning Crescent, 0% of the Moon is Illuminated
Jan 11
Waning Crescent
Jan 11
New
Jan 18
First Quarter
Jan 26
Full
Feb 3
Last Quarter

Hourly Weather History & Observations

Time (EST) Temp. Windchill Dew Point Humidity Pressure Visibility Wind Dir Wind Speed Gust Speed Precip Events Conditions
12:15 AM 36.0 °F 27.5 °F 34.3 °F 94% 30.08 in 7.0 mi SE 12.7 mph - N/A   Overcast
12:35 AM 36.0 °F 28.0 °F 34.3 °F 94% 30.07 in 7.0 mi SE 11.5 mph 18.4 mph N/A   Overcast
12:54 AM 36.0 °F 27.1 °F 34.3 °F 94% 30.06 in 7.0 mi ESE 13.8 mph - N/A   Overcast
1:15 AM 36.0 °F 28.5 °F 34.0 °F 93% 30.06 in 7.0 mi ESE 10.4 mph 17.3 mph N/A   Overcast
1:34 AM 36.0 °F 27.1 °F 33.6 °F 91% 30.04 in 7.0 mi ESE 13.8 mph 19.6 mph N/A Rain Rain
1:55 AM 36.0 °F 27.5 °F 33.6 °F 91% 30.03 in 7.0 mi SE 12.7 mph - N/A Snow Light Snow
2:15 AM 35.4 °F 26.8 °F 33.6 °F 93% 30.02 in 5.0 mi ESE 12.7 mph 17.3 mph N/A Rain Light Rain
2:35 AM 35.8 °F 26.9 °F 34.3 °F 94% 30.02 in 3.0 mi SE 13.8 mph - N/A Rain Light Rain
2:55 AM 35.4 °F 26.8 °F 34.3 °F 96% 30.01 in 3.0 mi SE 12.7 mph 17.3 mph N/A Snow Light Snow
3:15 AM 36.0 °F 28.0 °F 35.2 °F 97% 29.98 in 3.0 mi SE 11.5 mph 18.4 mph N/A Rain Light Rain
3:35 AM 36.1 °F 27.7 °F 35.4 °F 97% 29.97 in 4.0 mi SE 12.7 mph - N/A   Overcast
3:55 AM 36.7 °F 29.4 °F 35.8 °F 97% 29.95 in 4.0 mi SE 10.4 mph - N/A   Overcast
4:14 AM 36.9 °F 29.6 °F 35.8 °F 96% 29.95 in 5.0 mi SE 10.4 mph - N/A   Overcast
4:35 AM 36.9 °F 30.1 °F 35.6 °F 95% 29.93 in 5.0 mi ESE 9.2 mph - N/A   Overcast
4:54 AM 36.9 °F 29.6 °F 35.6 °F 95% 29.92 in 7.0 mi SE 10.4 mph - N/A   Overcast
5:15 AM 37.2 °F 30.0 °F 35.8 °F 95% 29.90 in 7.0 mi SE 10.4 mph - N/A   Overcast
5:35 AM 37.2 °F 30.6 °F 35.8 °F 95% 29.89 in 7.0 mi SE 9.2 mph - N/A   Drizzle
5:54 AM 37.6 °F 30.5 °F 36.1 °F 95% 29.88 in 5.0 mi SE 10.4 mph - N/A Rain Light Rain
6:14 AM 37.8 °F 30.7 °F 36.7 °F 96% 29.88 in 3.0 mi SE 10.4 mph - N/A Rain Light Rain
6:55 AM 39.4 °F 33.2 °F 38.3 °F 96% 29.87 in 2.5 mi SSE 9.2 mph - N/A Rain Rain
7:15 AM 39.9 °F 33.4 °F 39.2 °F 97% 29.85 in 2.0 mi SSE 10.4 mph 18.4 mph N/A Rain Light Rain
7:35 AM 39.9 °F 33.4 °F 39.2 °F 97% 29.83 in 1.5 mi SSE 10.4 mph 19.6 mph N/A   Drizzle
7:55 AM 40.5 °F 33.6 °F 39.9 °F 98% 29.82 in 0.8 mi SE 11.5 mph - N/A Rain Light Rain
8:15 AM 41.4 °F 34.0 °F 40.6 °F 97% 29.79 in 0.2 mi SE 13.8 mph 20.7 mph N/A Fog Fog
8:35 AM 44.8 °F 38.3 °F 44.4 °F 99% 29.77 in 1.2 mi SSE 13.8 mph 20.7 mph N/A   Overcast
8:54 AM 45.7 °F 39.8 °F 45.3 °F 99% 29.78 in 0.2 mi South 12.7 mph 16.1 mph N/A Fog Fog
9:15 AM 46.0 °F 41.4 °F 45.7 °F 99% 29.80 in 0.2 mi South 9.2 mph - N/A Fog Fog
9:34 AM 47.1 °F - 46.8 °F 99% 29.80 in 0.2 mi South 8.1 mph - N/A Fog Fog
9:55 AM 47.7 °F - 47.5 °F 99% 29.80 in 0.2 mi South 10.4 mph - N/A Fog Fog
10:15 AM 48.2 °F - 47.8 °F 99% 29.80 in 1.5 mi SSW 12.7 mph 17.3 mph N/A   Overcast
10:34 AM 48.9 °F - 48.7 °F 99% 29.81 in 2.5 mi SSW 10.4 mph 16.1 mph N/A   Overcast
10:55 AM 49.3 °F - 48.9 °F 99% 29.81 in 2.0 mi SSW 10.4 mph 17.3 mph N/A   Overcast
11:15 AM 49.8 °F - 49.6 °F 99% 29.80 in 2.0 mi South 10.4 mph 16.1 mph N/A   Overcast
11:34 AM 50.4 °F - 50.2 °F 99% 29.80 in 2.0 mi SSW 9.2 mph - N/A   Overcast
11:55 AM 51.3 °F - 50.9 °F 99% 29.79 in 7.0 mi SSW 12.7 mph - N/A   Overcast
12:15 PM 52.3 °F - 52.2 °F 99% 29.78 in 7.0 mi SW 10.4 mph - N/A   Overcast
12:34 PM 53.1 °F - 52.5 °F 98% 29.77 in 10.0 mi SW 8.1 mph - N/A   Overcast
12:55 PM 54.7 °F - 52.7 °F 93% 29.77 in 10.0 mi SW 9.2 mph 17.3 mph N/A   Overcast
1:15 PM 55.6 °F - 52.2 °F 88% 29.77 in 10.0 mi WSW 13.8 mph 23.0 mph N/A   Overcast
1:35 PM 55.2 °F - 51.1 °F 86% 29.78 in 10.0 mi WSW 13.8 mph 21.9 mph N/A   Overcast
1:55 PM 55.8 °F - 50.7 °F 83% 29.78 in 10.0 mi WSW 16.1 mph - N/A   Overcast
2:14 PM 56.5 °F - 50.7 °F 81% 29.78 in 10.0 mi SW 11.5 mph 19.6 mph N/A   Overcast
3:15 PM 54.0 °F - 48.6 °F 82% 29.82 in 10.0 mi WSW 11.5 mph 20.7 mph N/A   Overcast
3:35 PM 53.2 °F - 48.9 °F 85% 29.82 in 10.0 mi WSW 9.2 mph - N/A   Mostly Cloudy
3:54 PM 53.4 °F - 48.7 °F 84% 29.83 in 10.0 mi WSW 13.8 mph 18.4 mph N/A   Mostly Cloudy
4:15 PM 53.2 °F - 47.7 °F 81% 29.84 in 10.0 mi SW 11.5 mph 17.3 mph N/A   Scattered Clouds
4:35 PM 53.1 °F - 47.7 °F 82% 29.84 in 10.0 mi WSW 8.1 mph - N/A   Mostly Cloudy
4:54 PM 52.5 °F - 47.1 °F 82% 29.84 in 10.0 mi WSW 6.9 mph - N/A   Overcast
5:15 PM 51.6 °F - 46.9 °F 84% 29.84 in 10.0 mi SW 5.8 mph - N/A   Mostly Cloudy
5:35 PM 51.3 °F - 46.6 °F 84% 29.85 in 10.0 mi SW 5.8 mph - N/A   Mostly Cloudy
5:54 PM 51.1 °F - 46.6 °F 85% 29.85 in 10.0 mi SSW 5.8 mph - N/A   Overcast
6:15 PM 50.7 °F - 46.6 °F 86% 29.85 in 10.0 mi SSW 6.9 mph - N/A   Mostly Cloudy
6:35 PM 50.0 °F - 46.2 °F 87% 29.86 in 10.0 mi SSW 6.9 mph - N/A   Scattered Clouds
6:54 PM 50.2 °F - 46.4 °F 87% 29.86 in 10.0 mi SSW 8.1 mph - N/A   Mostly Cloudy
7:14 PM 50.2 °F - 45.7 °F 85% 29.86 in 10.0 mi SSW 8.1 mph - N/A   Scattered Clouds
7:35 PM 50.0 °F - 45.9 °F 86% 29.86 in 10.0 mi SSW 6.9 mph - N/A   Clear
7:55 PM 49.3 °F - 45.7 °F 87% 29.86 in 10.0 mi South 5.8 mph - N/A   Clear
8:14 PM 48.7 °F - 45.7 °F 89% 29.85 in 10.0 mi South 6.9 mph - N/A   Clear
8:35 PM 48.6 °F - 45.7 °F 90% 29.85 in 10.0 mi South 6.9 mph - N/A   Clear
8:54 PM 48.2 °F - 45.7 °F 91% 29.85 in 10.0 mi South 8.1 mph - N/A   Clear
9:15 PM 48.2 °F - 46.0 °F 92% 29.85 in 10.0 mi South 8.1 mph - N/A   Clear
9:35 PM 47.8 °F - 45.9 °F 93% 29.85 in 10.0 mi South 6.9 mph - N/A   Clear
9:54 PM 48.0 °F - 46.0 °F 93% 29.85 in 10.0 mi South 8.1 mph - N/A   Clear
10:15 PM 48.0 °F - 46.2 °F 93% 29.85 in 10.0 mi South 9.2 mph - N/A   Clear
10:35 PM 48.2 °F - 46.4 °F 93% 29.84 in 10.0 mi South 8.1 mph - N/A   Clear
10:55 PM 48.6 °F - 46.8 °F 93% 29.84 in 10.0 mi South 11.5 mph - N/A   Clear
11:15 PM 48.4 °F - 46.6 °F 93% 29.84 in 10.0 mi South 9.2 mph - N/A   Clear
11:35 PM 48.4 °F - 46.6 °F 93% 29.84 in 10.0 mi South 6.9 mph - N/A   Clear
11:55 PM 48.0 °F - 46.6 °F 95% 29.83 in 10.0 mi South 6.9 mph - N/A   Clear